Location: Brno
(49.2000°N, 16.6330°E)
Time: 21:18:59
(UTC+02:00)

RESURS DK-1 - Visible Passes

Search period start: 24 April 2014 00:00
Search period end: 04 May 2014 00:00
Orbit: 560 x 569 km, 69.9° (Epoch: 24 April)

Date Brightness Start Highest point End Pass type
(mag) Time Alt. Az. Time Alt. Az. Time Alt. Az.
24 Apr 2.8 21:00:03 10° S 21:03:57 40° ESE 21:07:52 10° NE visible
24 Apr 4.5 22:38:38 10° WSW 22:42:14 27° NW 22:45:51 10° NNE visible
25 Apr 2.4 20:59:55 10° SSW 21:03:59 55° ESE 21:08:05 10° NE visible
25 Apr 5.0 22:39:10 10° W 22:42:28 22° NW 22:45:47 10° N visible
26 Apr 2.3 20:59:54 10° SSW 21:04:03 76° ESE 21:08:15 10° NNE visible
26 Apr 5.4 22:39:49 10° W 22:42:44 18° NW 22:45:39 10° N visible
27 Apr 6.0 03:42:30 10° NNE 03:43:52 11° NE 03:45:14 10° NE visible
27 Apr 2.5 20:59:58 10° SSW 21:04:08 81° WNW 21:08:21 10° NNE visible
27 Apr 5.7 22:40:36 10° WNW 22:43:01 15° NW 22:45:26 10° N visible
28 Apr 5.8 03:42:01 10° N 03:44:12 14° NE 03:46:22 10° ENE visible
28 Apr 3.1 21:00:08 10° SW 21:04:15 60° WNW 21:08:25 10° NNE visible
28 Apr 6.0 22:41:36 10° WNW 22:43:19 12° NW 22:45:03 10° N visible
29 Apr 5.7 03:41:45 10° N 03:44:29 17° NE 03:47:13 10° E visible
29 Apr 3.7 21:00:23 10° SW 21:04:24 45° NW 21:08:26 10° NNE visible
29 Apr 6.2 22:43:21 10° NW 22:43:39 10° NNW 22:43:58 10° NNW visible
30 Apr 5.3 03:41:35 10° N 03:44:45 20° NE 03:47:54 10° E visible
30 Apr 4.3 21:00:43 10° WSW 21:04:33 35° NW 21:08:26 10° NNE visible
01 May 4.9 03:41:28 10° N 03:44:59 25° NE 03:48:28 10° ESE visible
01 May 4.9 21:01:09 10° WSW 21:04:45 27° NW 21:08:22 10° NNE visible
02 May 4.4 03:41:24 10° NNW 03:45:11 31° NE 03:48:56 10° ESE visible
02 May 5.3 21:01:40 10° W 21:04:58 22° NW 21:08:16 10° N visible
03 May 3.9 03:41:22 10° NNW 03:45:21 40° NE 03:49:18 10° SE visible
03 May 5.5 21:02:18 10° W 21:05:12 18° NW 21:08:07 10° N visible
